"2010-10-23 00:00:00",271021,0.555,60.25,0.807,0.03,8.62,103.5725,8.42,9.24,75.85,0,110.1,13.45,9.20,22.2
"2010-10-23 00:00:30",271022,0.501,61.01,1.569,0.033,8.81,103.588,8.46,9.25,75.53,0,110.1,13.45,9.24,23.0
"2010-10-23 00:01:00",271023,0.482,63.05,1.266,0.003,9.09,103.592,8.47,9.27,75.27,0,110.1,13.45,9.25,25.0
"2010-10-23 00:01:30",271024,1.741,68.21,6.507,1.342,11.77,103.5923,8.47,9.43,75.32,0,110.1,13.42,9.25,30.2
"2010-10-23 00:02:00",271025,1.564,65.26,6.107,1.321,11.23,103.592,8.47,9.44,75.39,0,110.1,13.42,9.25,27.3
"2010-10-23 00:02:30",271026,2.061,71.73,7.828,1.297,12.78,103.592,8.47,9.57,75.55,0,110.1,13.42,9.25,33.7
"2010-10-23 00:03:00",271027,1.647,69.15,6.415,1.335,11.44,103.592,8.47,9.41,75.33,0,110.1,13.41,9.25,31.2
"2010-10-23 00:03:30",271028,0.551,63.41,1.7,0.03,8.68,103.592,8.47,9.33,75.4,0,110.1,13.45,9.25,25.4
"2010-10-23 00:04:00",271029,0.531,64.11,1.122,0.034,8.52,103.592,8.47,9.33,75.4,0,110.1,13.46,9.25,26.1
"2010-10-23 00:04:30",271030,0.609,62.62,1.107,0.026,8.7,103.5923,8.47,9.43,75.63,0,110.1,13.45,9.25,24.6
"2010-10-23 00:05:00",271031,1.805,65.68,7.929,1.262,10.55,103.592,8.47,9.39,75.86,0,110.1,13.43,9.25,27.7
"2010-10-23 00:05:30",271032,0.7,56,1.121,0.018,8.56,103.592,8.47,9.42,76.01,0,110.1,13.46,9.25,18.0
"2010-10-23 00:06:00",271033,0.736,53.7,0.763,0.035,8.45,103.5923,8.47,9.33,76.01,0,110.1,13.46,9.25,15.7
"2010-10-23 00:06:30",271034,0.761,52.28,0.842,0.018,8.7,103.5923,8.47,9.34,76.15,0,110.1,13.46,9.25,14.3
"2010-10-23 00:07:00",271035,0.812,50.3,1.01,0.022,9.11,103.592,8.47,9.33,76.18,0,110.1,13.46,9.25,12.3
"2010-10-23 00:07:30",271036,2.603,58.28,6.185,1.269,12.94,103.592,8.47,9.63,76.47,0,110.1,13.43,9.25,20.3
"2010-10-23 00:08:00",271037,3.151,60.09,3.269,0.852,13.98,103.592,8.47,9.66,76.51,0,110.1,13.43,9.25,22.1
"2010-10-23 00:08:30",271038,0.929,45.89,3.442,0.477,9.59,103.5909,8.47,9.41,76.28,0,110.1,13.43,9.25,7.9
"2010-10-23 00:09:00",271039,0.882,44.58,0.377,0.018,8.5,103.5855,8.45,9.32,76.24,0,110.1,13.46,9.24,6.6
"2010-10-23 00:09:30",271040,0.924,45.08,0.523,0.036,8.42,103.5779,8.43,9.33,76.39,0,110.1,13.46,9.22,7.1
"2010-10-23 00:10:00",271041,0.958,45.29,0.59,0.005,8.67,103.5672,8.41,9.4,76.61,0,110.1,13.46,9.19,7.3
"2010-10-23 00:10:30",271042,2.108,51.41,6.805,1.293,10.8,103.5598,8.39,9.4,76.66,0,110.1,13.43,9.17,13.4
"2010-10-23 00:11:00",271043,1.153,45.36,0.573,0.032,8.75,103.5599,8.39,9.32,76.74,0,110.1,13.46,9.17,7.4
"2010-10-23 00:11:30",271044,1.193,44.88,1.019,0.028,8.64,103.5602,8.39,9.3,76.81,0,110,13.46,9.17,6.9
"2010-10-23 00:12:00",271045,1.728,45.99,5.381,1.012,9.65,103.5599,8.39,9.3,76.91,0,110.1,13.43,9.17,8.0
"2010-10-23 00:12:30",271046,2.297,47.91,6.317,1.307,10.95,103.5613,8.39,9.42,77.12,0,110.1,13.43,9.17,9.9
"2010-10-23 00:13:00",271047,3.321,51.96,6.284,1.19,13.29,103.5604,8.39,9.61,77.33,0,110.1,13.43,9.17,14.0
"2010-10-23 00:13:30",271048,2.71,49.51,6.684,1.333,11.44,103.5593,8.39,9.39,77.19,0,110.1,13.43,9.17,11.5
"2010-10-23 00:14:00",271049,1.414,45.08,2.046,0.034,8.49,103.5551,8.38,9.26,77.09,0,110,13.46,9.16,7.1
"2010-10-23 00:14:30",271050,1.853,51.57,5.724,0.925,9.23,103.5288,8.31,9.31,77.09,0,110,13.42,9.09,13.6
"2010-10-23 00:15:00",271051,2.175,54.87,5.313,1.179,9.64,103.5266,8.3,9.3,77.15,0,110.1,13.42,9.08,16.9
"2010-10-23 00:15:30",271052,2.427,60.64,6.063,1.219,10.59,103.5257,8.3,9.32,77.07,0,110,13.42,9.08,22.6
"2010-10-23 00:16:00",271053,1.59,56.8,0.394,0.014,8.83,103.5232,8.29,9.2,76.99,0,110.1,13.45,9.08,18.8
"2010-10-23 00:16:30",271054,1.659,59.16,2.543,0.025,9.37,103.4984,8.23,9.31,77.2,0,110.1,13.45,9.01,21.2
"2010-10-23 00:17:00",271055,3.627,66.1,6.597,1.125,13.15,103.4936,8.22,9.36,77.5,0,110.1,13.42,9.00,28.1
"2010-10-23 00:17:30",271056,3.574,62.2,6.177,1.245,12.52,103.4974,8.23,9.42,77.84,0,110.1,13.42,9.01,24.2
"2010-10-23 00:18:00",271057,2.488,53.31,5.763,1.177,9.97,103.4942,8.22,9.2,77.98,0,110.1,13.42,9.00,15.3
"2010-10-23 00:18:30",271058,1.788,47.82,1.674,0.054,8.23,103.4767,8.18,9.13,78.11,0,110.1,13.45,8.96,9.8
"2010-10-23 00:19:00",271059,1.874,45.41,1.465,0.039,8.19,103.4623,8.14,9.11,78.35,0,110.1,13.43,8.92,7.4
"2010-10-23 00:19:30",271060,3.029,48.27,6.762,1.281,10.72,103.4643,8.14,9.21,78.83,0,110.1,13.42,8.92,10.3
"2010-10-23 00:20:00",271061,1.878,40.95,0.998,0.027,8.96,103.464,8.14,9.1,79.4,0,110,13.46,8.92,3.0
"2010-10-23 00:20:30",271062,2.016,39.37,2.538,0.09,9.04,103.4474,8.1,9.17,80.1,0,110,13.46,8.88,1.4
"2010-10-23 00:21:00",271063,4.057,48.76,6.212,1.152,12.02,103.4316,8.06,9.15,80.3,0,110,13.43,8.84,10.8
"2010-10-23 00:21:30",271064,3.935,47.29,6.861,1.279,11.91,103.4192,8.03,9.12,80.5,0,110.1,13.43,8.81,9.3
"2010-10-23 00:22:00",271065,3.058,41.09,6.236,1.157,10.24,103.3966,7.971,9.12,81.1,0,110.1,13.43,8.75,3.1
"2010-10-23 00:22:30",271066,3.044,42.14,6.395,1.214,10.5,103.3986,7.976,9.11,81.6,0,110,13.43,8.76,4.1
"2010-10-23 00:23:00",271067,3.21,47,7.58,1.274,10.59,103.3974,7.973,8.97,81.4,0,110,13.43,8.75,9.0
"2010-10-23 00:23:30",271068,3.024,48.97,7.589,1.244,10.93,103.4001,7.98,9.04,81.2,0,110,13.43,8.76,11.0
"2010-10-23 00:24:00",271069,1.979,45.99,0.857,0.05,8.78,103.4012,7.983,8.9,80.6,0,110.1,13.47,8.76,8.0
"2010-10-23 00:24:30",271070,3.101,53.52,6.859,1.312,10.74,103.415,8.02,8.93,80.3,0,110,13.43,8.80,15.5
"2010-10-23 00:25:00",271071,3.266,53.1,6.692,1.33,11.58,103.4269,8.05,9,80.2,0,110,13.43,8.83,15.1
"2010-10-23 00:25:30",271072,2.643,49.55,7.321,1.179,10.77,103.4372,8.07,9.12,80.3,0,110,13.43,8.86,11.5
"2010-10-23 00:26:00",271073,2.247,44.87,5.052,0.929,9.85,103.4363,8.07,9.04,80.4,0,110.1,13.43,8.85,6.9
"2010-10-23 00:26:30",271074,3.143,47.27,6.723,1.317,11.17,103.4386,8.08,9.06,80.6,0,110,13.43,8.86,9.3
"2010-10-23 00:27:00",271075,1.873,41.68,3.738,0.463,9.15,103.4375,8.08,9.04,80.7,0,110,13.47,8.86,3.7
"2010-10-23 00:27:30",271076,2.823,45.63,6.915,1.303,10.43,103.4383,8.08,8.99,80.7,0,110,13.43,8.86,7.6
"2010-10-23 00:28:00",271077,1.785,39.28,0.761,0.029,8.86,103.4404,8.08,8.99,80.8,0,110,13.47,8.86,1.3
"2010-10-23 00:28:30",271078,1.92,39.37,2.773,0.658,8.81,103.4407,8.08,8.93,80.7,0,110,13.43,8.86,1.4
"2010-10-23 00:29:00",271079,2.344,42.46,6.2,1.118,10.8,103.4445,8.09,9.14,81,0,110,13.43,8.87,4.5
"2010-10-23 00:29:30",271080,3.271,46.9,6.504,1.261,12.79,103.4462,8.1,9.18,81.1,0,110,13.43,8.88,8.9
"2010-10-23 00:30:00",271081,2.321,43.41,4.853,1.112,9.81,103.4424,8.09,8.92,80.6,0,110,13.43,8.87,5.4
"2010-10-23 00:30:30",271082,2.999,49.54,6.334,1.314,11.09,103.4442,8.09,9,80.2,0,110,13.43,8.87,11.5
"2010-10-23 00:31:00",271083,2.612,48.7,6.277,1.197,10.93,103.4439,8.09,9.19,80.2,0,110,13.43,8.87,10.7
"2010-10-23 00:31:30",271084,2.55,47.74,6.547,1.234,10.61,103.4462,8.1,9.1,80.1,0,110,13.42,8.88,9.7
"2010-10-23 00:32:00",271085,1.757,41.28,1.13,0.458,8.64,103.4465,8.1,8.93,79.9,0,110,13.43,8.88,3.3
"2010-10-23 00:32:30",271086,1.717,41.88,0.829,0.033,8.67,103.4454,8.1,8.95,79.92,0,110,13.46,8.88,3.9
"2010-10-23 00:33:00",271087,2.62,47.31,7.391,1.24,10.94,103.4471,8.1,9.11,80,0,110,13.43,8.88,9.3
"2010-10-23 00:33:30",271088,3.529,51.77,6.607,1.217,12.29,103.448,8.1,9.14,79.87,0,110,13.42,8.88,13.8
"2010-10-23 00:34:00",271089,2.886,47.43,6.75,1.3,10.95,103.4485,8.1,9.04,79.8,0,110,13.42,8.88,9.4
"2010-10-23 00:34:30",271090,1.885,40.34,1.341,0.047,8.82,103.4491,8.11,8.98,79.81,0,110,13.46,8.89,2.3
"2010-10-23 00:35:00",271091,3.241,45.68,7.349,1.294,10.74,103.4517,8.11,9.02,79.94,0,110,13.42,8.89,7.7
"2010-10-23 00:35:30",271092,3.212,44.58,6.457,1.291,11.39,103.4525,8.11,9.16,80.2,0,110,13.43,8.89,6.6
"2010-10-23 00:36:00",271093,2.76,40.76,6.886,1.313,10.73,103.4512,8.11,9.12,80.4,0,110,13.43,8.89,2.8
"2010-10-23 00:36:30",271094,1.721,36.44,1.442,0.066,8.79,103.45,8.11,8.99,80.4,0,110,13.47,8.89,358.4
"2010-10-23 00:37:00",271095,1.615,35.39,2.177,0.136,8.78,103.4512,8.11,9.05,80.5,0,110,13.47,8.89,357.4
"2010-10-23 00:37:30",271096,3.166,43,6.311,1.249,12.49,103.4512,8.11,9.22,80.8,0,110.1,13.43,8.89,5.0
"2010-10-23 00:38:00",271097,2.468,37.33,7.746,1.403,11.07,103.4503,8.11,9.07,80.8,0,110.1,13.43,8.89,359.3
"2010-10-23 00:38:30",271098,1.179,30.08,2.078,0.092,8.54,103.4477,8.1,8.97,80.9,0,110,13.47,8.88,352.1
"2010-10-23 00:39:00",271099,1.107,29.73,2.08,0.088,8.36,103.4497,8.11,8.95,81,0,110.1,13.47,8.89,351.7
"2010-10-23 00:39:30",271100,1.311,33.08,4.898,0.546,8.97,103.4483,8.1,9.04,81,0,110.1,13.47,8.88,355.1
"2010-10-23 00:40:00",271101,3.251,43.07,5.217,1.156,12.52,103.4503,8.11,9.22,81.1,0,110.1,13.43,8.89,5.1
"2010-10-23 00:40:30",271102,2.451,39.5,6.453,1.26,10.74,103.4518,8.11,9.11,80.8,0,110,13.43,8.89,1.5
"2010-10-23 00:41:00",271103,1.283,33.3,2.876,0.204,8.71,103.4538,8.12,8.96,80.5,0,110,13.47,8.90,355.3
"2010-10-23 00:41:30",271104,1.511,34.67,4.056,0.643,9.24,103.4544,8.12,9.08,80.5,0,110,13.43,8.90,356.7
"2010-10-23 00:42:00",271105,2.996,40.28,6.742,1.208,11.96,103.4524,8.11,9.2,80.6,0,110.1,13.43,8.89,2.3
"2010-10-23 00:42:30",271106,1.974,36.67,6.877,1.224,10.5,103.4556,8.12,9.07,80.4,0,110,13.43,8.90,358.7
"2010-10-23 00:43:00",271107,1.073,31.27,2.199,0.095,8.33,103.4541,8.12,8.95,80.2,0,110,13.47,8.90,353.3
"2010-10-23 00:43:30",271108,1.06,29.57,2.704,0.101,8.24,103.4565,8.12,8.96,80.1,0,110.1,13.47,8.90,351.6
"2010-10-23 00:44:00",271109,1.019,27.85,2.662,0.09,8.44,103.4553,8.12,8.97,80.2,0,110,13.47,8.90,349.9
"2010-10-23 00:44:30",271110,1.427,28.98,5.247,0.93,9.74,103.4562,8.12,9.12,80.3,0,110,13.44,8.90,351.0
"2010-10-23 00:45:00",271111,2.94,39.08,5.664,1.164,12.58,103.4562,8.12,9.23,80.6,0,110.1,13.44,8.90,1.1
"2010-10-23 00:45:30",271112,1.887,32.46,5.717,1.199,9.91,103.4576,8.13,8.98,80.4,0,110,13.44,8.91,354.5
"2010-10-23 00:46:00",271113,1.152,30.47,2.654,0.111,8.71,103.4562,8.12,8.97,80.3,0,110,13.47,8.90,352.5
"2010-10-23 00:46:30",271114,2.576,38.04,7.579,1.347,11.14,103.4565,8.12,9.18,80.5,0,110.1,13.43,8.90,0.0
"2010-10-23 00:47:00",271115,2.704,39.78,7.255,1.346,11.93,103.4567,8.12,9.25,80.7,0,110,13.43,8.91,1.8
"2010-10-23 00:47:30",271116,1.558,34.38,1.392,0.101,8.38,103.4565,8.12,8.97,80.3,0,110,13.47,8.90,356.4
"2010-10-23 00:48:00",271117,1.711,35.87,0.729,0.057,8.29,103.4562,8.12,8.98,80.2,0,110,13.47,8.90,357.9
"2010-10-23 00:48:30",271118,1.749,36.12,0.871,0.065,8.57,103.4576,8.13,8.98,80,0,110,13.47,8.91,358.1
"2010-10-23 00:49:00",271119,1.98,37.78,2.696,0.676,8.98,103.4613,8.14,9.03,80.1,0,110,13.43,8.92,359.8
"2010-10-23 00:49:30",271120,3.391,48.49,6.639,1.318,12.51,103.4726,8.17,9.2,79.91,0,110,13.43,8.95,10.5
"2010-10-23 00:50:00",271121,2.116,41.14,3.607,0.793,9.68,103.4901,8.21,9.13,79.39,0,110,13.43,8.99,3.1
"2010-10-23 00:50:30",271122,3.714,49.48,6.459,1.163,12.49,103.4915,8.21,9.21,79.4,0,110,13.43,8.99,11.5
"2010-10-23 00:51:00",271123,3.24,48.46,6.652,1.283,11.95,103.4906,8.21,9.28,79.42,0,110,13.43,8.99,10.5
"2010-10-23 00:51:30",271124,2.892,43.56,6.965,1.323,10.44,103.4915,8.21,9.08,79.22,0,110.1,13.43,8.99,5.6
"2010-10-23 00:52:00",271125,1.709,38.03,1.048,0.033,8.38,103.4915,8.21,9.02,79.26,0,110,13.46,8.99,0.0
"2010-10-23 00:52:30",271126,1.724,38.47,0.379,0.014,8.54,103.4915,8.21,9.03,79.2,0,110,13.47,8.99,0.5
"2010-10-23 00:53:00",271127,1.76,39.28,0.591,0.037,8.8,103.4915,8.21,9.04,79.25,0,110,13.47,8.99,1.3
"2010-10-23 00:53:30",271128,2.865,46.97,6.809,1.298,11.2,103.4909,8.21,9.18,79.31,0,110,13.43,8.99,9.0
"2010-10-23 00:54:00",271129,2.839,45.18,6.181,1.277,10.89,103.4912,8.21,9.16,79.21,0,110,13.44,8.99,7.2
"2010-10-23 00:54:30",271130,2.643,43.53,6.119,1.22,10.66,103.4912,8.21,9.18,79.3,0,110,13.44,8.99,5.5
"2010-10-23 00:55:00",271131,3.645,47.67,6.138,1.181,12.72,103.4906,8.21,9.31,79.49,0,110,13.43,8.99,9.7
"2010-10-23 00:55:30",271132,2.316,38.28,6.39,1.194,10.25,103.4909,8.21,9.14,79.69,0,110,13.43,8.99,0.3
"2010-10-23 00:56:00",271133,1.37,32.39,1.779,0.124,8.44,103.4915,8.21,9.05,79.97,0,110,13.47,8.99,354.4
"2010-10-23 00:56:30",271134,1.171,29.95,1.898,0.104,8.18,103.4912,8.21,9.07,80.2,0,110,13.47,8.99,352.0
"2010-10-23 00:57:00",271135,1.134,27.63,1.501,0.071,8.35,103.4904,8.21,9.05,80.4,0,110,13.47,8.99,349.6
"2010-10-23 00:57:30",271136,1.319,25.86,2.08,0.458,8.76,103.4878,8.2,9.1,80.6,0,110,13.44,8.99,347.9
"2010-10-23 00:58:00",271137,2.413,29.65,7.365,1.256,10.98,103.4701,8.16,9.1,80.9,0,110,13.44,8.94,351.6
"2010-10-23 00:58:30",271138,1.325,23.74,1.633,0.072,8.97,103.4579,8.13,9.03,81.1,0,110,13.48,8.91,345.7
"2010-10-23 00:59:00",271139,2.371,31.55,7.249,1.278,11.33,103.4576,8.13,9.2,81.3,0,110,13.44,8.91,353.5
"2010-10-23 00:59:30",271140,3.329,38.48,6.917,0.997,12.94,103.4562,8.12,9.28,81.5,0,110,13.44,8.90,0.5
"2010-10-23 01:00:00",271141,2.898,36.79,6.553,1.317,11.63,103.4449,8.09,9.1,81.5,0,110.1,13.44,8.88,358.8
"2010-10-23 01:00:30",271142,1.638,28.45,1.205,0.046,8.2,103.4452,8.1,8.94,81.5,0,110.1,13.47,8.88,350.5
"2010-10-23 01:01:00",271143,1.569,30.03,0.801,0.099,8.07,103.4537,8.12,8.95,81.3,0,110.1,13.47,8.90,352.0
"2010-10-23 01:01:30",271144,1.197,28.82,1.64,0.131,8.33,103.4576,8.13,8.95,81.3,0,110.1,13.47,8.91,350.8
"2010-10-23 01:02:00",271145,1.408,26.26,3.354,0.54,9.2,103.457,8.13,9.07,81.4,0,110.1,13.44,8.91,348.3
"2010-10-23 01:02:30",271146,2.087,31.74,6.002,1.269,10.37,103.4576,8.13,9,81.3,0,110.1,13.44,8.91,353.7
"2010-10-23 01:03:00",271147,1.473,28.61,3.547,0.814,9.19,103.4573,8.13,8.97,81.2,0,110.1,13.44,8.91,350.6
"2010-10-23 01:03:30",271148,1.714,31.51,6.728,1.036,10.36,103.4573,8.13,9.11,81.5,0,110.1,13.44,8.91,353.5
"2010-10-23 01:04:00",271149,2.724,38.48,7.094,1.202,12.18,103.4573,8.13,9.17,81.5,0,110,13.43,8.91,0.5
"2010-10-23 01:04:30",271150,3.054,41.83,6.534,1.264,12.41,103.457,8.13,9.23,81.6,0,110,13.43,8.91,3.8
"2010-10-23 01:05:00",271151,1.87,34.51,5.037,0.973,9.53,103.4573,8.13,9.01,81.3,0,110,13.43,8.91,356.5
"2010-10-23 01:05:30",271152,1.56,32.34,1.209,0.072,8.21,103.4576,8.13,8.95,81,0,110,13.47,8.91,354.3
"2010-10-23 01:06:00",271153,1.492,31.65,1.729,0.082,8.39,103.4588,8.13,8.95,80.7,0,110,13.47,8.91,353.6
"2010-10-23 01:06:30",271154,1.884,32.74,6.433,1.013,9.82,103.4808,8.19,9.12,80.4,0,110,13.43,8.97,354.7
"2010-10-23 01:07:00",271155,2.154,34.26,6.219,1.217,10.1,103.4915,8.21,9.01,80.1,0,110,13.43,8.99,356.3
"2010-10-23 01:07:30",271156,2.642,37.33,6.996,1.344,11.15,103.4915,8.21,9.06,80,0,110,13.43,8.99,359.3
"2010-10-23 01:08:00",271157,2.629,37.04,7.097,1.33,11.33,103.4915,8.21,9.15,80,0,110,13.43,8.99,359.0
"2010-10-23 01:08:30",271158,2.456,35.81,5.798,1.146,10.45,103.4915,8.21,9.04,79.84,0,110,13.43,8.99,357.8
"2010-10-23 01:09:00",271159,3.778,44.01,6.033,1.106,12.77,103.4915,8.21,9.29,79.67,0,110,13.43,8.99,6.0
"2010-10-23 01:09:30",271160,2.193,34.93,1.973,0.494,9.05,103.4986,8.23,9.13,79.33,0,110,13.43,9.01,356.9
"2010-10-23 01:10:00",271161,2.142,34.37,1.332,0.103,8.62,103.5141,8.27,9.06,79.11,0,110,13.47,9.05,356.4
"2010-10-23 01:10:30",271162,3.083,39.54,6.9,1.303,10.68,103.5198,8.29,9.15,78.87,0,110,13.44,9.07,1.5
"2010-10-23 01:11:00",271163,2.794,37.2,6.785,1.251,10.81,103.5254,8.3,9.21,78.53,0,110,13.44,9.08,359.2
"2010-10-23 01:11:30",271164,3.505,39.65,6.97,1.291,11.88,103.5254,8.3,9.22,78.12,0,110,13.44,9.08,1.7
"2010-10-23 01:12:00",271165,2.457,35.16,5.201,0.941,10.17,103.5254,8.3,9.27,78.24,0,110,13.44,9.08,357.2
"2010-10-23 01:12:30",271166,2.72,36.63,5.576,1.01,10.19,103.5254,8.3,9.29,78.36,0,110,13.44,9.08,358.6
"2010-10-23 01:13:00",271167,3.8,40.84,6.84,1.293,11.23,103.5254,8.3,9.2,78.24,0,110,13.44,9.08,2.8
"2010-10-23 01:13:30",271168,4.186,43.63,6.071,1.16,12.44,103.5254,8.3,9.29,78.2,0,110,13.44,9.08,5.6
"2010-10-23 01:14:00",271169,2.275,34.39,1.05,0.101,8.82,103.5254,8.3,9.12,77.52,0,110,13.47,9.08,356.4
"2010-10-23 01:14:30",271170,3.268,38.42,7.28,1.339,10.64,103.5254,8.3,9.19,77.36,0,110,13.44,9.08,0.4
"2010-10-23 01:15:00",271171,3.046,37.06,6.856,1.308,10.74,103.5254,8.3,9.3,76.6,0,110,13.44,9.08,359.1
"2010-10-23 01:15:30",271172,3.245,38.74,6.485,1.268,10.91,103.5263,8.3,9.23,77.01,0,110,13.44,9.08,0.7
"2010-10-23 01:16:00",271173,2.311,34.5,2.832,0.486,9.4,103.528,8.31,9.26,77.5,0,110.1,13.47,9.09,356.5
"2010-10-23 01:16:30",271174,3.018,39.32,7.05,1.124,10.82,103.5302,8.31,9.31,77.54,0,110.1,13.44,9.09,1.3
"2010-10-23 01:17:00",271175,2.845,39.68,3.988,0.89,9.62,103.5297,8.31,9.23,77.87,0,110.1,13.44,9.09,1.7
"2010-10-23 01:17:30",271176,3.492,43.19,7.246,1.318,10.53,103.5254,8.3,9.19,78.4,0,110.1,13.44,9.08,5.2
"2010-10-23 01:18:00",271177,3.56,44,6.847,1.294,11.31,103.5254,8.3,9.33,79.01,0,110.1,13.44,9.08,6.0
"2010-10-23 01:18:30",271178,3.083,41.34,5.978,1.135,10.5,103.5234,8.3,9.26,79.23,0,110.1,13.44,9.08,3.3
"2010-10-23 01:19:00",271179,4.035,45.66,6.578,1.3,12.02,103.5048,8.25,9.35,79.54,0,110.1,13.44,9.03,7.7
"2010-10-23 01:19:30",271180,3.451,45.69,6.286,1.294,11.12,103.4915,8.21,9.17,79.83,0,110.1,13.44,8.99,7.7
"2010-10-23 01:20:00",271181,2.507,40.11,0.517,0.038,8.89,103.4915,8.21,9.08,80,0,110.1,13.44,8.99,2.1
"2010-10-23 01:20:30",271182,3.58,45.2,6.88,1.331,11.12,103.491,8.21,9.24,80.2,0,110.1,13.43,8.99,7.2
"2010-10-23 01:21:00",271183,3.244,40.36,4.886,0.987,9.85,103.4912,8.21,9.07,78.84,0,110.1,13.43,8.99,2.4
"2010-10-23 01:21:30",271184,2.94,38.19,0.975,0.473,9.5,103.4915,8.21,9.17,77.93,0,110,13.43,8.99,0.2
"2010-10-23 01:22:00",271185,4.907,48.19,5.442,1.068,13.25,103.5045,8.25,9.21,77.38,0,110,13.43,9.03,10.2
"2010-10-23 01:22:30",271186,3.972,43.4,6.67,1.309,11.6,103.5246,8.3,9.2,77.15,0,110,13.43,9.08,5.4
"2010-10-23 01:23:00",271187,3.607,41.82,6.234,1.179,10.55,103.5254,8.3,9.19,77.09,0,110.1,13.43,9.08,3.8
"2010-10-23 01:23:30",271188,3.011,39.33,3.67,0.534,9.75,103.5254,8.3,9.24,76.49,0,110,13.43,9.08,1.3
"2010-10-23 01:24:00",271189,4.208,44.01,6.689,1.318,11.56,103.5268,8.3,9.28,75.82,0,110,13.43,9.09,6.0
"2010-10-23 01:24:30",271190,3.109,38.3,4.37,0.686,10.19,103.5455,8.35,9.29,75.68,0,110,13.43,9.13,0.3
"2010-10-23 01:25:00",271191,3.568,40.84,6.187,1.184,10.72,103.5551,8.38,9.16,75.49,0,110,13.43,9.16,2.8
"2010-10-23 01:25:30",271192,3.522,41.65,6.201,1.135,11.33,103.5593,8.39,9.35,75.69,0,110,13.43,9.17,3.7
"2010-10-23 01:26:00",271193,4.511,44.88,6.757,1.258,12.7,103.5593,8.39,9.45,75.78,0,110,13.44,9.17,6.9
"2010-10-23 01:26:30",271194,4.435,44.42,6.658,1.284,11.85,103.5593,8.39,9.33,75.86,0,110,13.44,9.17,6.4
"2010-10-23 01:27:00",271195,2.951,36.57,0.755,0.074,9.25,103.5593,8.39,9.29,75.69,0,110.1,13.47,9.17,358.6
"2010-10-23 01:27:30",271196,3.25,37.56,3.441,0.826,9.15,103.5593,8.39,9.18,75.22,0,110.1,13.43,9.17,359.6
"2010-10-23 01:28:00",271197,4.324,44.91,6.751,1.308,11.51,103.5593,8.39,9.35,75.03,0,110.1,13.44,9.17,6.9
"2010-10-23 01:28:30",271198,3.124,39,0.492,0.032,9.17,103.5593,8.39,9.21,74.94,0,110.1,13.47,9.17,1.0
"2010-10-23 01:29:00",271199,3.153,38.79,0.638,0.034,9.2,103.5593,8.39,9.29,75.39,0,110.1,13.47,9.17,0.8
"2010-10-23 01:29:30",271200,5.016,48.85,6.215,1.226,12.78,103.5593,8.39,9.5,75.74,0,110.1,13.44,9.17,10.8
"2010-10-23 01:30:00",271201,4.975,49.02,6.044,1.153,12.89,103.5593,8.39,9.47,76.41,0,110.1,13.44,9.17,11.0
"2010-10-23 01:30:30",271202,4.292,44.57,6.872,1.266,11.35,103.5593,8.39,9.3,76.04,0,110.1,13.44,9.17,6.6
"2010-10-23 01:31:00",271203,3.208,36.69,0.529,0.057,8.95,103.5593,8.39,9.23,75.19,0,110.1,13.47,9.17,358.7
"2010-10-23 01:31:30",271204,4.52,43.42,6.834,1.305,11.42,103.5593,8.39,9.32,75.08,0,110.1,13.44,9.17,5.4
"2010-10-23 01:32:00",271205,3.634,39.28,5.547,0.901,10.34,103.5593,8.39,9.35,75,0,110.1,13.44,9.17,1.3
"2010-10-23 01:32:30",271206,3.896,40.01,4.854,1.064,9.69,103.5587,8.39,9.2,74.85,0,110.1,13.44,9.17,2.0
"2010-10-23 01:33:00",271207,5.244,47.64,6.222,1.105,12.69,103.5576,8.38,9.38,75.02,0,110.1,13.44,9.16,9.6
"2010-10-23 01:33:30",271208,5.339,49,5.718,1.166,12.98,103.5559,8.38,9.44,75.01,0,110.1,13.44,9.16,11.0
"2010-10-23 01:34:00",271209,4.567,44.88,7.221,1.328,11.23,103.5528,8.37,9.34,75,0,110.1,13.44,9.15,6.9
"2010-10-23 01:34:30",271210,4.242,44.74,5.895,1.201,10.13,103.5458,8.35,9.18,74.8,0,110.1,13.44,9.13,6.7
"2010-10-23 01:35:00",271211,4.093,45.85,5.775,1.07,10.34,103.5347,8.32,9.35,75.12,0,110.1,13.44,9.11,7.8
"2010-10-23 01:35:30",271212,4.311,45.79,5.973,1.134,10.23,103.5282,8.31,9.18,75.23,0,110.1,13.44,9.09,7.8
"2010-10-23 01:36:00",271213,4.196,45.27,6.149,1.137,10.26,103.5254,8.3,9.21,75.28,0,110.1,13.44,9.08,7.3
"2010-10-23 01:36:30",271214,5.123,50.85,5.98,1.206,12.43,103.5257,8.3,9.43,75.84,0,110.1,13.43,9.08,12.8
"2010-10-23 01:37:00",271215,5.737,53.65,3.824,1.051,13.79,103.5254,8.3,9.47,76.08,0,110.1,13.43,9.08,15.7
"2010-10-23 01:37:30",271216,4.171,43.44,4.744,0.957,9.68,103.5254,8.3,9.23,76.13,0,110.1,13.43,9.08,5.4
"2010-10-23 01:38:00",271217,3.811,43.09,2.984,0.246,9.62,103.5254,8.3,9.28,76.33,0,110.1,13.47,9.08,5.1
"2010-10-23 01:38:30",271218,4.842,47.35,6.102,1.334,10.8,103.5226,8.29,9.15,76.36,0,110.1,13.43,9.07,9.3
"2010-10-23 01:39:00",271219,4.396,47.27,6,1.113,10.8,103.5133,8.27,9.29,76.5,0,110.1,13.43,9.05,9.3
"2010-10-23 01:39:30",271220,4.966,47.73,6.59,1.277,10.94,103.4986,8.23,9.23,76.6,0,110.1,13.43,9.01,9.7
"2010-10-23 01:40:00",271221,5.751,53.41,6.166,1.106,13.26,103.4918,8.21,9.35,76.77,0,110.1,13.43,9.00,15.4
"2010-10-23 01:40:30",271222,5.325,53.08,6.489,1.304,11.78,103.4915,8.21,9.24,76.67,0,110.1,13.43,8.99,15.1
"2010-10-23 01:41:00",271223,4.506,48.95,4.751,1.029,10.35,103.4915,8.21,9.21,76.04,0,110.1,13.43,8.99,11.0
"2010-10-23 01:41:30",271224,5.381,52.14,7.368,1.322,11.66,103.4915,8.21,9.25,73.91,0,110.1,13.43,8.99,14.1
"2010-10-23 01:42:00",271225,4.386,47.62,4.249,0.512,10.15,103.4921,8.22,9.22,74.37,0,110.1,13.43,9.00,9.6
"2010-10-23 01:42:30",271226,6.196,58.04,5.729,1.18,12.77,103.4915,8.21,9.24,74.82,0,110.1,13.43,8.99,20.0
"2010-10-23 01:43:00",271227,5.844,54.49,6.303,1.257,11.94,103.4915,8.21,9.29,75.38,0,110.1,13.44,8.99,16.5
"2010-10-23 01:43:30",271228,6.043,59.53,6.297,1.278,12.79,103.4915,8.21,9.37,76.16,0,110.1,13.44,8.99,21.5
"2010-10-23 01:44:00",271229,5.325,56.18,6.912,1.262,11.05,103.4915,8.21,9.17,75.55,0,110.1,13.44,8.99,18.2
"2010-10-23 01:44:30",271230,5.105,55.33,6.4,1.281,10.52,103.4915,8.21,9.12,76.51,0,110.1,13.43,8.99,17.3
"2010-10-23 01:45:00",271231,4.439,54.74,2.73,0.302,9.56,103.4893,8.21,9.2,76.98,0,110.1,13.44,8.99,16.7
"2010-10-23 01:45:30",271232,6.461,65.11,6.449,1.212,12.27,103.4715,8.16,9.14,77.41,0,110.1,13.44,8.94,27.1
"2010-10-23 01:46:00",271233,5.487,61.39,6.644,1.188,11.29,103.459,8.13,9.22,77.88,0,110.1,13.44,8.91,23.4
"2010-10-23 01:46:30",271234,6.465,67.85,6.087,1.12,12.85,103.4576,8.13,9.24,78.15,0,110.1,13.44,8.91,29.8
"2010-10-23 01:47:00",271235,6.054,65.59,6.582,1.275,11.97,103.4576,8.13,9.25,78.38,0,110.1,13.44,8.91,27.6
"2010-10-23 01:47:30",271236,5.5,63.67,6.553,1.26,11.18,103.4576,8.13,9.07,78.47,0,110.1,13.43,8.91,25.7
"2010-10-23 01:48:00",271237,5.484,64.68,6.486,1.285,11.23,103.4571,8.13,9.06,78.7,0,110.1,13.44,8.91,26.7
"2010-10-23 01:48:30",271238,5.684,65.41,6.592,1.327,11.65,103.4475,8.1,9.12,78.99,0,110.1,13.44,8.88,27.4
"2010-10-23 01:49:00",271239,6.416,67.54,6.147,1.227,12.23,103.4407,8.08,9.11,78.97,0,110.1,13.44,8.86,29.5
"2010-10-23 01:49:30",271240,5.526,64.67,6.437,1.206,11.14,103.4347,8.07,9.09,79.01,0,110.1,13.44,8.85,26.7
"2010-10-23 01:50:00",271241,6.053,67.79,6.664,1.293,12.08,103.4285,8.05,9.17,79.12,0,110.1,13.44,8.83,29.8
"2010-10-23 01:50:30",271242,6.158,68.62,6.281,1.271,12.83,103.4251,8.04,9.21,79.2,0,110.1,13.44,8.82,30.6
"2010-10-23 01:51:00",271243,5.956,67.45,6.325,1.344,12.35,103.4237,8.04,9.12,78.98,0,110.1,13.44,8.82,29.4
"2010-10-23 01:51:30",271244,4.768,60.21,3.407,0.711,9.8,103.424,8.04,9.06,78.77,0,110.1,13.44,8.82,22.2
"2010-10-23 01:52:00",271245,6.097,67.14,6.025,1.213,12.3,103.4249,8.04,9.1,78.86,0,110.1,13.44,8.82,29.1
"2010-10-23 01:52:30",271246,4.962,63.33,5.707,1.186,10.06,103.424,8.04,9.01,78.86,0,110.1,13.44,8.82,25.3
"2010-10-23 01:53:00",271247,5.9,71.06,5.715,1.239,12.81,103.4237,8.04,9.17,79.05,0,110.1,13.43,8.82,33.1
"2010-10-23 01:53:30",271248,6.109,71.48,6.233,1.107,12.85,103.4237,8.04,9.14,79.08,0,110.1,13.43,8.82,33.5